User: anonymous   Login
Location: Acorn Hill
(36.4429°N, 76.5469°W)
Time: 21:12:41
(UTC+00:00)
Language:

BlueWalker 3 - Orbit

View from above orbital plane
View from above orbital plane
View from above satellite
View from above satellite

Ground track
Ground track

The orbit data is extracted from the following two-line orbital elements,

1 53807U 22111AL  23038.17628311  .00005106  00000-0  25325-3 0  9997
2 53807  53.2058 307.4253 0013260  22.8258 337.3325 15.19331660 22679
Epoch (UTC): 07 February 2023 04:13:50
Eccentricity: 0.0013260
inclination: 53.2058°
perigee height: 499 km
apogee height: 517 km
right ascension of ascending node: 307.4253°
argument of perigee: 22.8258°
revolutions per day: 15.19331660
mean anomaly at epoch: 337.3325°
orbit number at epoch: 2267

The dashed part of the orbit path shows where the satellite is in the earth's shadow,  

DLR